Voltar ao catálogo

TITAN 3C TRANSTAGE DEB

AtivoVLEO
NORAD 1883·DEBRIS·🇺🇸 United States

Lançado Oct 15, 1965 de Cape Canaveral Space Force Station

Loading…

Próximas Passagens (próximas 24 horas)

TLE

AtualizadoSource: Space-Track

Época: Sep 14, 2026, 01:55 UTC

1 01883U 65082EY  26257.08014534  .00005525  00000-0  21538-3 0  9997
2 01883  32.0910 176.3127 0013121 249.0054 110.9204 15.24526296278877

Acompanhe TITAN 3C TRANSTAGE DEB em tempo real com AllMySat

Download on the App Store